IBB215 GCLP-GCHI

Flight info

Callsign IBB215
Flight time 0h 55m
Altitude 15000
Route HIE
Aircraft AT76/M-SDFGIRY/S

Departure

Time 2026-04-21 15:41
Airport Gran Canaria Airport (GCLP)

Arrival

Time 2026-04-21 16:37
Airport El Hierro Airport (GCHI)
Time Latitude Longitude Altitude Speed Heading
2026-04-21 15:21 27.94054 -15.38715 84 ft 0 kts 291°
2026-04-21 15:21 27.94054 -15.38714 84 ft 0 kts 291°
2026-04-21 15:25 27.94053 -15.38713 84 ft 0 kts 291°
2026-04-21 15:29 27.94053 -15.38712 84 ft 0 kts 291°
2026-04-21 15:31 27.94039 -15.38676 82 ft 10 kts 297°
2026-04-21 15:31 27.94028 -15.38642 68 ft 1 kts 221°
2026-04-21 15:31 27.94004 -15.38656 69 ft 7 kts 203°
2026-04-21 15:31 27.93939 -15.38686 84 ft 13 kts 202°
2026-04-21 15:32 27.93842 -15.38728 82 ft 17 kts 199°
2026-04-21 15:32 27.93725 -15.38779 81 ft 19 kts 201°
2026-04-21 15:32 27.93597 -15.38835 82 ft 21 kts 200°
2026-04-21 15:32 27.93477 -15.38877 83 ft 14 kts 174°
2026-04-21 15:33 27.93421 -15.38785 74 ft 10 kts 106°
2026-04-21 15:33 27.93378 -15.38760 70 ft 6 kts 204°
2026-04-21 15:33 27.93310 -15.38798 67 ft 14 kts 203°
2026-04-21 15:33 27.93208 -15.38844 67 ft 18 kts 202°
2026-04-21 15:34 27.93047 -15.38922 72 ft 19 kts 196°
2026-04-21 15:34 27.92928 -15.38973 74 ft 18 kts 205°
2026-04-21 15:34 27.92813 -15.39028 84 ft 18 kts 201°
2026-04-21 15:34 27.92700 -15.39076 88 ft 17 kts 201°
2026-04-21 15:35 27.92589 -15.39123 88 ft 17 kts 200°
2026-04-21 15:35 27.92482 -15.39172 91 ft 17 kts 202°
2026-04-21 15:35 27.92370 -15.39220 94 ft 17 kts 200°
2026-04-21 15:35 27.92259 -15.39269 96 ft 18 kts 201°
2026-04-21 15:36 27.92130 -15.39305 93 ft 21 kts 184°
2026-04-21 15:36 27.91977 -15.39296 86 ft 16 kts 174°
2026-04-21 15:36 27.91928 -15.39218 82 ft 8 kts 46°
2026-04-21 15:36 27.91956 -15.39204 83 ft 0 kts 20°
2026-04-21 15:37 27.91955 -15.39204 81 ft 0 kts 20°
2026-04-21 15:40 27.92035 -15.39171 81 ft 39 kts 20°
2026-04-21 15:40 27.92473 -15.38973 67 ft 97 kts 22°
2026-04-21 15:41 27.93237 -15.38633 72 ft 139 kts 22°
2026-04-21 15:41 27.94173 -15.38160 343 ft 157 kts 21°
2026-04-21 15:41 27.95179 -15.37682 952 ft 153 kts 19°
2026-04-21 15:41 27.96157 -15.37261 1583 ft 147 kts 17°
2026-04-21 15:42 27.97110 -15.36891 2031 ft 142 kts 15°
2026-04-21 15:42 27.98038 -15.36519 2426 ft 143 kts 17°
2026-04-21 15:42 27.98970 -15.36134 2809 ft 143 kts 17°
2026-04-21 15:42 27.99908 -15.35731 3174 ft 144 kts 17°
2026-04-21 15:43 28.00863 -15.35321 3490 ft 148 kts 16°
2026-04-21 15:43 28.01827 -15.34909 3846 ft 149 kts 16°
2026-04-21 15:43 28.02796 -15.34477 4171 ft 150 kts 25°
2026-04-21 15:43 28.03397 -15.33512 4466 ft 161 kts 84°
2026-04-21 15:44 28.03054 -15.32331 4799 ft 163 kts 129°
2026-04-21 15:44 28.02329 -15.31312 5120 ft 167 kts 131°
2026-04-21 15:44 28.01558 -15.30329 5495 ft 167 kts 134°
2026-04-21 15:44 28.00811 -15.29317 5852 ft 168 kts 130°
2026-04-21 15:45 28.00131 -15.28256 6210 ft 169 kts 125°
2026-04-21 15:45 27.99514 -15.27111 6516 ft 172 kts 121°
2026-04-21 15:45 27.98970 -15.25905 6830 ft 173 kts 116°
2026-04-21 15:45 27.98487 -15.24651 7134 ft 174 kts 113°
2026-04-21 15:46 27.98038 -15.23371 7440 ft 175 kts 112°
2026-04-21 15:46 27.97593 -15.22079 7738 ft 176 kts 112°
2026-04-21 15:46 27.97147 -15.20771 8007 ft 180 kts 112°
2026-04-21 15:46 27.96699 -15.19445 8313 ft 181 kts 112°
2026-04-21 15:47 27.96240 -15.18116 8610 ft 181 kts 113°
2026-04-21 15:47 27.95780 -15.16806 8903 ft 182 kts 113°
2026-04-21 15:47 27.95308 -15.15472 9207 ft 183 kts 113°
2026-04-21 15:47 27.94826 -15.14114 9439 ft 188 kts 113°
2026-04-21 15:48 27.94337 -15.12738 9733 ft 189 kts 113°
2026-04-21 15:48 27.93849 -15.11365 10000 ft 190 kts 114°
2026-04-21 15:48 27.93355 -15.09980 10248 ft 190 kts 114°
2026-04-21 15:48 27.92861 -15.08592 10507 ft 191 kts 114°
2026-04-21 15:49 27.92533 -15.07670 10672 ft 191 kts 114°
2026-04-21 15:49 27.92034 -15.06272 10919 ft 192 kts 114°
2026-04-21 15:49 27.91532 -15.04867 11150 ft 194 kts 114°
2026-04-21 15:49 27.90857 -15.02975 11470 ft 196 kts 114°
2026-04-21 15:50 27.90511 -15.02004 11632 ft 197 kts 114°
2026-04-21 15:50 27.89851 -15.00700 11811 ft 193 kts 145°
2026-04-21 15:50 27.88672 -15.00087 12047 ft 186 kts 170°
2026-04-21 15:50 27.87409 -14.99806 12299 ft 183 kts 179°
2026-04-21 15:51 27.86203 -15.00061 12491 ft 176 kts 210°
2026-04-21 15:51 27.85112 -15.00695 12736 ft 176 kts 213°
2026-04-21 15:51 27.84077 -15.01430 12989 ft 175 kts 218°
2026-04-21 15:51 27.83062 -15.02224 13165 ft 180 kts 218°
2026-04-21 15:52 27.82041 -15.03055 13401 ft 181 kts 220°
2026-04-21 15:52 27.81057 -15.03927 13649 ft 181 kts 223°
2026-04-21 15:52 27.80087 -15.04839 13878 ft 181 kts 223°
2026-04-21 15:52 27.79136 -15.05751 14074 ft 182 kts 224°
2026-04-21 15:53 27.78198 -15.06713 14280 ft 182 kts 227°
2026-04-21 15:53 27.77279 -15.07721 14488 ft 182 kts 227°
2026-04-21 15:53 27.76394 -15.08727 14665 ft 183 kts 229°
2026-04-21 15:53 27.75525 -15.09786 14838 ft 185 kts 231°
2026-04-21 15:54 27.74668 -15.10908 14916 ft 192 kts 232°
2026-04-21 15:54 27.73803 -15.12100 14949 ft 200 kts 234°
2026-04-21 15:54 27.72945 -15.13374 14972 ft 207 kts 236°
2026-04-21 15:54 27.72093 -15.14725 14979 ft 214 kts 237°
2026-04-21 15:55 27.71255 -15.16138 14980 ft 220 kts 239°
2026-04-21 15:55 27.70443 -15.17626 14980 ft 225 kts 241°
2026-04-21 15:55 27.69661 -15.19171 14984 ft 228 kts 243°
2026-04-21 15:55 27.68918 -15.20772 14983 ft 231 kts 245°
2026-04-21 15:56 27.68223 -15.22423 14980 ft 234 kts 247°
2026-04-21 15:56 27.67576 -15.24110 14980 ft 236 kts 249°
2026-04-21 15:56 27.66991 -15.25821 14985 ft 237 kts 251°
2026-04-21 15:56 27.66453 -15.27589 14979 ft 239 kts 253°
2026-04-21 15:57 27.65970 -15.29386 14983 ft 240 kts 255°
2026-04-21 15:57 27.65551 -15.31211 14980 ft 240 kts 257°
2026-04-21 15:57 27.65187 -15.33049 14981 ft 241 kts 259°
2026-04-21 15:57 27.64894 -15.34914 14983 ft 241 kts 261°
2026-04-21 15:58 27.64656 -15.36793 14981 ft 242 kts 263°
2026-04-21 15:58 27.64488 -15.38690 14983 ft 242 kts 265°
2026-04-21 15:58 27.64382 -15.40594 14987 ft 243 kts 267°
2026-04-21 15:58 27.64340 -15.42502 14986 ft 244 kts 270°
2026-04-21 15:59 27.64367 -15.44414 14979 ft 244 kts 271°
2026-04-21 15:59 27.64449 -15.46325 14977 ft 244 kts 274°
2026-04-21 15:59 27.64599 -15.48236 14984 ft 245 kts 276°
2026-04-21 15:59 27.64852 -15.50112 14978 ft 245 kts 280°
2026-04-21 16:00 27.65239 -15.51984 14977 ft 246 kts 284°
2026-04-21 16:00 27.65672 -15.53849 14976 ft 246 kts 283°
2026-04-21 16:00 27.65994 -15.55744 14978 ft 245 kts 277°
2026-04-21 16:00 27.66170 -15.57658 14979 ft 245 kts 274°
2026-04-21 16:01 27.66285 -15.59570 14979 ft 245 kts 274°
2026-04-21 16:01 27.66395 -15.61488 14977 ft 245 kts 274°
2026-04-21 16:01 27.66510 -15.63404 14979 ft 245 kts 274°
2026-04-21 16:01 27.66644 -15.65319 14973 ft 245 kts 275°
2026-04-21 16:02 27.66785 -15.67235 14980 ft 245 kts 275°
2026-04-21 16:02 27.66929 -15.69151 14980 ft 245 kts 275°
2026-04-21 16:02 27.67072 -15.71068 14980 ft 245 kts 275°
2026-04-21 16:02 27.67213 -15.72984 14980 ft 245 kts 275°
2026-04-21 16:03 27.67357 -15.74898 14983 ft 245 kts 275°
2026-04-21 16:03 27.67497 -15.76784 14984 ft 245 kts 275°
2026-04-21 16:03 27.67642 -15.78728 14982 ft 245 kts 275°
2026-04-21 16:03 27.67783 -15.80650 14983 ft 245 kts 275°
2026-04-21 16:04 27.67923 -15.82544 14981 ft 245 kts 275°
2026-04-21 16:04 27.68065 -15.84460 14986 ft 245 kts 275°
2026-04-21 16:04 27.68205 -15.86380 14985 ft 245 kts 275°
2026-04-21 16:04 27.68347 -15.88298 14987 ft 245 kts 275°
2026-04-21 16:05 27.68487 -15.90216 14993 ft 245 kts 275°
2026-04-21 16:05 27.68628 -15.92133 14992 ft 245 kts 275°
2026-04-21 16:05 27.68721 -15.93405 14992 ft 246 kts 275°
2026-04-21 16:05 27.68771 -15.94091 14992 ft 246 kts 275°
2026-04-21 16:06 27.68908 -15.95992 14990 ft 246 kts 275°
2026-04-21 16:06 27.69050 -15.97917 14991 ft 246 kts 275°
2026-04-21 16:06 27.69188 -15.99841 14988 ft 246 kts 275°
2026-04-21 16:06 27.69328 -16.01767 14992 ft 246 kts 275°
2026-04-21 16:07 27.69469 -16.03700 14991 ft 246 kts 275°
2026-04-21 16:07 27.69608 -16.05630 14991 ft 246 kts 275°
2026-04-21 16:07 27.69747 -16.07560 14988 ft 246 kts 275°
2026-04-21 16:07 27.69883 -16.09461 14987 ft 246 kts 275°
2026-04-21 16:08 27.70161 -16.13320 14988 ft 246 kts 275°
2026-04-21 16:08 27.70298 -16.15248 14990 ft 246 kts 275°
2026-04-21 16:08 27.70435 -16.17175 14990 ft 246 kts 275°
2026-04-21 16:09 27.70572 -16.19101 14988 ft 246 kts 275°
2026-04-21 16:09 27.70711 -16.21030 14987 ft 246 kts 275°
2026-04-21 16:09 27.70846 -16.22957 14987 ft 246 kts 275°
2026-04-21 16:09 27.70982 -16.24881 14990 ft 246 kts 275°
2026-04-21 16:10 27.71118 -16.26809 14991 ft 246 kts 275°
2026-04-21 16:10 27.71253 -16.28715 14990 ft 246 kts 275°
2026-04-21 16:10 27.71388 -16.30645 14990 ft 246 kts 275°
2026-04-21 16:10 27.71523 -16.32570 14987 ft 246 kts 275°
2026-04-21 16:11 27.71658 -16.34498 14992 ft 246 kts 275°
2026-04-21 16:11 27.71795 -16.36427 14990 ft 246 kts 275°
2026-04-21 16:11 27.71929 -16.38354 14993 ft 246 kts 275°
2026-04-21 16:11 27.72062 -16.40280 14994 ft 246 kts 275°
2026-04-21 16:12 27.72150 -16.41556 14993 ft 246 kts 275°
2026-04-21 16:12 27.72331 -16.44131 14990 ft 246 kts 275°
2026-04-21 16:12 27.72463 -16.46057 14990 ft 246 kts 275°
2026-04-21 16:12 27.72597 -16.47984 14991 ft 246 kts 275°
2026-04-21 16:13 27.72729 -16.49912 14994 ft 246 kts 275°
2026-04-21 16:13 27.72861 -16.51837 14996 ft 246 kts 275°
2026-04-21 16:13 27.72994 -16.53761 14995 ft 246 kts 275°
2026-04-21 16:13 27.73125 -16.55684 14996 ft 246 kts 275°
2026-04-21 16:14 27.73257 -16.57617 14997 ft 246 kts 275°
2026-04-21 16:14 27.73388 -16.59526 14999 ft 246 kts 275°
2026-04-21 16:14 27.73519 -16.61451 14999 ft 246 kts 275°
2026-04-21 16:14 27.73650 -16.63381 14997 ft 246 kts 275°
2026-04-21 16:15 27.73780 -16.65310 14996 ft 246 kts 275°
2026-04-21 16:15 27.73912 -16.67237 14995 ft 246 kts 275°
2026-04-21 16:15 27.74043 -16.69165 14993 ft 246 kts 275°
2026-04-21 16:15 27.74172 -16.71097 14993 ft 246 kts 275°
2026-04-21 16:16 27.74302 -16.73025 14995 ft 246 kts 275°
2026-04-21 16:16 27.74428 -16.74929 14997 ft 246 kts 275°
2026-04-21 16:16 27.74559 -16.76855 14996 ft 246 kts 275°
2026-04-21 16:16 27.74687 -16.78785 14995 ft 246 kts 275°
2026-04-21 16:17 27.74817 -16.80711 14993 ft 246 kts 275°
2026-04-21 16:17 27.74946 -16.82637 14997 ft 246 kts 275°
2026-04-21 16:17 27.75073 -16.84561 14997 ft 246 kts 275°
2026-04-21 16:17 27.75200 -16.86488 14996 ft 246 kts 275°
2026-04-21 16:18 27.75327 -16.88415 14998 ft 246 kts 275°
2026-04-21 16:18 27.75455 -16.90339 14995 ft 246 kts 275°
2026-04-21 16:18 27.75582 -16.92265 14995 ft 246 kts 275°
2026-04-21 16:18 27.75707 -16.94190 14992 ft 246 kts 275°
2026-04-21 16:19 27.75834 -16.96117 14998 ft 246 kts 275°
2026-04-21 16:19 27.75961 -16.98039 14996 ft 246 kts 275°
2026-04-21 16:19 27.76085 -16.99965 14997 ft 246 kts 275°
2026-04-21 16:19 27.76209 -17.01863 14996 ft 245 kts 275°
2026-04-21 16:20 27.76336 -17.03786 14998 ft 246 kts 275°
2026-04-21 16:20 27.76461 -17.05710 14996 ft 245 kts 275°
2026-04-21 16:20 27.76584 -17.07633 14998 ft 245 kts 275°
2026-04-21 16:20 27.76709 -17.09559 14998 ft 245 kts 275°
2026-04-21 16:21 27.76833 -17.11481 15001 ft 245 kts 274°
2026-04-21 16:21 27.76957 -17.13405 14998 ft 245 kts 274°
2026-04-21 16:21 27.77078 -17.15306 15000 ft 245 kts 275°
2026-04-21 16:21 27.77201 -17.17225 15001 ft 245 kts 275°
2026-04-21 16:22 27.77325 -17.19148 14998 ft 245 kts 274°
2026-04-21 16:22 27.77448 -17.21071 15001 ft 245 kts 274°
2026-04-21 16:22 27.77569 -17.22989 15000 ft 245 kts 274°
2026-04-21 16:22 27.77690 -17.24906 15001 ft 245 kts 274°
2026-04-21 16:23 27.77811 -17.26823 15000 ft 245 kts 274°
2026-04-21 16:23 27.77933 -17.28742 15002 ft 245 kts 274°
2026-04-21 16:23 27.78055 -17.30640 15001 ft 232 kts 275°
2026-04-21 16:23 27.78177 -17.32341 14971 ft 204 kts 275°
2026-04-21 16:24 27.78290 -17.33918 14608 ft 199 kts 275°
2026-04-21 16:24 27.78402 -17.35457 14257 ft 195 kts 274°
2026-04-21 16:24 27.78504 -17.36966 13909 ft 191 kts 274°
2026-04-21 16:24 27.78598 -17.38434 13543 ft 188 kts 274°
2026-04-21 16:25 27.78692 -17.39904 13158 ft 186 kts 273°
2026-04-21 16:25 27.78783 -17.41361 12776 ft 185 kts 273°
2026-04-21 16:25 27.78874 -17.42805 12399 ft 184 kts 273°
2026-04-21 16:25 27.78962 -17.44241 12029 ft 182 kts 273°
2026-04-21 16:26 27.79051 -17.45665 11663 ft 181 kts 272°
2026-04-21 16:26 27.79138 -17.47083 11296 ft 180 kts 272°
2026-04-21 16:26 27.79223 -17.48474 10939 ft 179 kts 272°
2026-04-21 16:26 27.79311 -17.49876 10588 ft 178 kts 272°
2026-04-21 16:27 27.79397 -17.51271 10236 ft 177 kts 272°
2026-04-21 16:27 27.79479 -17.52610 9902 ft 177 kts 272°
2026-04-21 16:27 27.79563 -17.53994 9512 ft 176 kts 272°
2026-04-21 16:27 27.79648 -17.55375 9128 ft 176 kts 273°
2026-04-21 16:28 27.79731 -17.56754 8757 ft 175 kts 273°
2026-04-21 16:28 27.79813 -17.58130 8390 ft 175 kts 273°
2026-04-21 16:28 27.79896 -17.59503 8014 ft 175 kts 274°
2026-04-21 16:28 27.79980 -17.60877 7636 ft 175 kts 274°
2026-04-21 16:29 27.80035 -17.61786 7391 ft 175 kts 274°
2026-04-21 16:29 27.80143 -17.63614 6904 ft 174 kts 275°
2026-04-21 16:29 27.80216 -17.64987 6502 ft 177 kts 274°
2026-04-21 16:29 27.80285 -17.66387 6055 ft 180 kts 275°
2026-04-21 16:30 27.80357 -17.67805 5608 ft 182 kts 275°
2026-04-21 16:30 27.80432 -17.69206 5160 ft 179 kts 276°
2026-04-21 16:30 27.80518 -17.70606 4719 ft 177 kts 276°
2026-04-21 16:30 27.80601 -17.71988 4261 ft 175 kts 277°
2026-04-21 16:31 27.80683 -17.73353 3819 ft 173 kts 277°
2026-04-21 16:31 27.80763 -17.74697 3401 ft 169 kts 277°
2026-04-21 16:31 27.80838 -17.75979 3196 ft 157 kts 277°
2026-04-21 16:31 27.80910 -17.77172 3089 ft 147 kts 276°
2026-04-21 16:32 27.80585 -17.78182 3046 ft 141 kts 218°
2026-04-21 16:32 27.79597 -17.78173 2756 ft 165 kts 136°
2026-04-21 16:32 27.78687 -17.77435 2802 ft 164 kts 165°
2026-04-21 16:32 27.77535 -17.77346 2800 ft 172 kts 186°
2026-04-21 16:33 27.76371 -17.77612 2802 ft 177 kts 205°
2026-04-21 16:33 27.75241 -17.78208 2813 ft 183 kts 215°
2026-04-21 16:33 27.74348 -17.79180 2819 ft 178 kts 251°
2026-04-21 16:33 27.74214 -17.80545 2819 ft 178 kts 275°
2026-04-21 16:34 27.74186 -17.81978 2802 ft 186 kts 267°
2026-04-21 16:34 27.73841 -17.83383 2922 ft 186 kts 251°
2026-04-21 16:34 27.73573 -17.84779 2885 ft 184 kts 277°
2026-04-21 16:34 27.74074 -17.86064 2728 ft 177 kts 316°
2026-04-21 16:35 27.75104 -17.86608 2389 ft 162 kts 347°
2026-04-21 16:35 27.76217 -17.86642 1872 ft 159 kts 360°
2026-04-21 16:35 27.76943 -17.86606 1655 ft 146 kts 356°
2026-04-21 16:35 27.78094 -17.86801 1336 ft 115 kts 340°
2026-04-21 16:36 27.78814 -17.87104 950 ft 109 kts 336°
2026-04-21 16:36 27.79479 -17.87514 576 ft 106 kts 329°
2026-04-21 16:36 27.79883 -17.87780 405 ft 97 kts 329°
2026-04-21 16:36 27.80447 -17.88107 229 ft 88 kts 331°
2026-04-21 16:37 27.80994 -17.88423 123 ft 88 kts 330°
2026-04-21 16:37 27.81464 -17.88694 94 ft 39 kts 334°
2026-04-21 16:37 27.81699 -17.88832 84 ft 36 kts 337°
2026-04-21 16:37 27.81874 -17.88930 75 ft 15 kts 329°
2026-04-21 16:38 27.81938 -17.88995 69 ft 9 kts 312°
2026-04-21 16:38 27.81959 -17.88986 64 ft 3 kts 114°
2026-04-21 16:38 27.81897 -17.88943 74 ft 20 kts 154°
2026-04-21 16:38 27.81764 -17.88865 83 ft 23 kts 151°
2026-04-21 16:39 27.81626 -17.88784 88 ft 23 kts 153°
2026-04-21 16:39 27.81480 -17.88699 92 ft 24 kts 153°
2026-04-21 16:39 27.81365 -17.88631 97 ft 9 kts 146°
2026-04-21 16:39 27.81344 -17.88639 97 ft 0 kts 314°
2026-04-21 16:40 27.81360 -17.88641 97 ft 2 kts
2026-04-21 16:40 27.81353 -17.88624 97 ft 10 kts 124°
2026-04-21 16:40 27.81357 -17.88564 98 ft 3 kts 83°
2026-04-21 16:40 27.81342 -17.88559 96 ft 1 kts 231°
2026-04-21 16:41 27.81343 -17.88562 96 ft 0 kts 266°
2026-04-21 16:41 27.81336 -17.88608 98 ft 9 kts 214°
2026-04-21 16:41 27.81290 -17.88564 97 ft 10 kts 82°
2026-04-21 16:41 27.81321 -17.88523 95 ft 4 kts
2026-04-21 16:42 27.81332 -17.88526 95 ft 0 kts 340°
2026-04-21 16:42 27.81337 -17.88529 96 ft 0 kts 336°
2026-04-21 16:44 27.81337 -17.88528 95 ft 0 kts 336°
2026-04-21 16:46 27.81336 -17.88528 95 ft 0 kts 336°
2026-04-21 16:49 27.81335 -17.88528 95 ft 0 kts 336°
2026-04-21 16:51 27.81335 -17.88527 95 ft 0 kts 335°
2026-04-21 16:53 27.81334 -17.88527 95 ft 0 kts 335°
2026-04-21 16:57 27.81333 -17.88527 95 ft 0 kts 335°
2026-04-21 16:58 27.81333 -17.88526 95 ft 0 kts 335°
2026-04-21 17:00 27.81332 -17.88526 95 ft 0 kts 335°
2026-04-21 17:04 27.81331 -17.88526 95 ft 0 kts 335°
2026-04-21 17:05 27.81331 -17.88525 95 ft 0 kts 335°
2026-04-21 17:07 27.81330 -17.88525 95 ft 0 kts 336°
2026-04-21 17:10 27.81329 -17.88525 95 ft 0 kts 336°
2026-04-21 17:12 27.81329 -17.88524 95 ft 0 kts 335°
2026-04-21 17:13 27.81328 -17.88524 95 ft 0 kts 335°
2026-04-21 17:17 27.81327 -17.88524 95 ft 0 kts 336°